Back to catalog

STARLINK-35984

AliveCommunicationsVLEO
NORAD 66814·PAYLOAD·🇺🇸 United States

Launched Dec 1, 2025 from Cape Canaveral Space Force Station

Loading…

Next Passes (next 24 hours)

TLE

FreshSource: CelesTrak SupGP

Epoch: Sep 14, 2026, 15:29 UTC

1 66814C 25278Z   26257.64562500  .00024777  00000+0  89728-3 0  2579
2 66814  42.9987 126.9568 0001170 273.2203 341.9641 15.27571306    17

Track STARLINK-35984 in real time with AllMySat

Download on the App Store